IRIDIUM 81 [+]

Last updated on Wed May 30 2018 00:19:59 GMT+0000 (Coordinated Universal Time)

1 25468U 98051B 18149.28428340 .00000162 00000-0 46522-4 0 9994 2 25468 86.4264 237.1486 0002521 92.8250 267.3236 14.38608610 32601
UTC large
Height (km)
Speed (km/s)
/
Latitude / Longitude
Inclination (degrees)
Orbital Period (minutes)
Azimuth
Elevation
Range (km)
Doppler Factor

Next 0 passes for location: London (51.5072 / 0.1276)

Sorry there are no passes over London.